Flag for Congo Weather past 2 weeks in Brazzaville, Congo

Now
73 °F

Clear.


Feels Like: 75 °F
Forecast: 67 / 83 °F
Wind: 8 mph from West

Location: Brazzaville / Maya-Maya

Current Time: Jun 30, 2015 at 6:53:36 PM

Latest Report: Jun 30, 2015 at 6:00 PM


Visibility: 4 mi

Pressure: 29.98 "Hg

Humidity: 74%

Dew point: 64 °F

Location of BrazzavilleLocation

Historic Weather in Brazzaville — Graph

°F

Brazzaville temperature yesterday

Maximum temperature yesterday: 86 °F (at 4:00 PM)
Minimum temperature yesterday: 66 °F (at 5:00 AM)
Average temperature yesterday: 75 °F

Past Weeks' High & Low Weather Summary

 TemperatureHumidityPressure
High86 °F (Jun 19, 4:00 PM)100% (Jun 19, 7:00 AM)30.15 "Hg (Jun 19, 7:00 AM)
Low64 °F (Jun 19, 5:00 AM)51% (Jun 27, 4:00 PM)29.86 "Hg (Jun 17, 3:00 PM)
Average73 °F78%30.02 "Hg
* Reported Jun 15 6:00 PM — Jun 30 5:00 PM, Brazzaville, Weather by CustomWeather, © 2015

Note: Actual official high and low records may vary slightly from our data, if they occured in-between our weather recording intervals... More about our weather records

Advertising

Brazzaville weather history for previous 24 hours

 ConditionsComfort  
Time TempWeatherWind HumidityBarometerVisibility
5:00 PM
Tue, Jun 30
75 °FPassing clouds.10 mph69%29.98 "Hg5 mi
4:00 PM77 °FPartly sunny.12 mph65%29.95 "Hg5 mi
3:00 PM77 °FPartly sunny.7 mph69%29.95 "Hg5 mi
2:00 PM77 °FScattered clouds.8 mph65%29.98 "Hg5 mi
1:00 PM75 °FPartly sunny.6 mph69%30.01 "Hg5 mi
12:00 PM73 °FBroken clouds.9 mph74%30.04 "Hg5 mi
11:00 AM72 °FBroken clouds.8 mph78%30.07 "Hg4 mi
10:00 AM72 °FMore clouds than sun.6 mph78%30.07 "Hg4 mi
9:49 AM72 °FMore clouds than sun.6 mph78%30.07 "Hg4 mi
9:00 AM70 °FFog.6 mph83%30.07 "Hg2 mi
8:00 AM70 °FFog.5 mph83%30.07 "Hg2 mi
7:00 AM68 °FFog.3 mph88%30.04 "Hg2 mi
6:00 AM68 °FPassing clouds.2 mph88%30.01 "Hg4 mi
5:00 AM66 °FClear.No wind94%29.98 "Hg4 mi
4:00 AM66 °FClear.2 mph88%29.98 "Hg5 mi
3:00 AM66 °FClear.2 mph94%29.98 "Hg5 mi
2:00 AM68 °FClear.No wind88%30.01 "Hg5 mi
1:00 AM70 °FClear.1 mph78%30.01 "Hg5 mi
12:00 AM70 °FClear.2 mph78%30.01 "Hg5 mi
11:00 PM
Mon, Jun 29
72 °FClear.5 mph73%30.01 "Hg5 mi
10:00 PM73 °FClear.8 mph69%30.01 "Hg4 mi
9:00 PM75 °FClear.7 mph65%30.01 "Hg4 mi
8:00 PM75 °FClear.9 mph69%29.98 "Hg4 mi
7:00 PM79 °FHaze.8 mph65%29.95 "Hg3 mi
6:51 PM79 °FHaze.8 mph65%29.95 "Hg3 mi
6:00 PM81 °FClear.6 mph62%29.95 "Hg4 mi
Weather by CustomWeather, © 2015

See weather overviewHow to use our weather pages